TimeEDT,TemperatureF,Dew PointF,Humidity,Sea Level PressureIn,VisibilityMPH,Wind Direction,Wind SpeedMPH,Gust SpeedMPH,PrecipitationIn,Events,Conditions,WindDirDegrees,DateUTC
12:15 AM,42.4,25.7,52,30.10,10.0,South,6.9,-,N/A,,Clear,180,2012-10-09 04:15:00
12:35 AM,42.3,25.7,52,30.09,10.0,South,6.9,-,N/A,,Clear,180,2012-10-09 04:35:00
12:54 AM,42.1,25.7,52,30.09,10.0,South,5.8,-,N/A,,Clear,170,2012-10-09 04:54:00
1:15 AM,41.0,26.4,56,30.08,10.0,SSE,5.8,-,N/A,,Clear,160,2012-10-09 05:15:00
1:35 AM,39.2,26.6,61,30.08,10.0,SSE,5.8,-,N/A,,Clear,150,2012-10-09 05:35:00
1:54 AM,39.9,27.0,60,30.08,10.0,SSE,5.8,-,N/A,,Clear,160,2012-10-09 05:54:00
2:15 AM,41.0,26.6,57,30.08,10.0,South,6.9,-,N/A,,Clear,170,2012-10-09 06:15:00
2:55 AM,40.1,26.8,59,30.08,10.0,South,6.9,-,N/A,,Clear,180,2012-10-09 06:55:00
3:15 AM,40.6,26.6,57,30.08,10.0,South,8.1,-,N/A,,Clear,180,2012-10-09 07:15:00
3:55 AM,41.0,26.6,57,30.06,10.0,South,8.1,-,N/A,,Clear,180,2012-10-09 07:55:00
4:14 AM,41.0,26.6,57,30.06,10.0,South,9.2,-,N/A,,Clear,190,2012-10-09 08:14:00
4:35 AM,40.5,26.8,58,30.06,10.0,South,8.1,-,N/A,,Clear,190,2012-10-09 08:35:00
4:55 AM,40.3,27.3,60,30.06,10.0,South,8.1,-,N/A,,Clear,190,2012-10-09 08:55:00
5:14 AM,39.7,27.3,61,30.06,10.0,SSW,3.5,-,N/A,,Clear,200,2012-10-09 09:14:00
5:35 AM,39.6,27.5,62,30.06,10.0,South,3.5,-,N/A,,Clear,170,2012-10-09 09:35:00
5:55 AM,34.9,28.0,76,30.06,10.0,SE,4.6,-,N/A,,Clear,140,2012-10-09 09:55:00
6:14 AM,37.0,29.3,74,30.06,10.0,SSE,3.5,-,N/A,,Clear,160,2012-10-09 10:14:00
6:35 AM,39.7,29.3,66,30.06,10.0,South,5.8,-,N/A,,Clear,170,2012-10-09 10:35:00
6:55 AM,40.3,28.9,64,30.06,10.0,South,5.8,-,N/A,,Clear,190,2012-10-09 10:55:00
7:14 AM,40.1,29.1,65,30.06,10.0,South,6.9,-,N/A,,Scattered Clouds,190,2012-10-09 11:14:00
7:55 AM,41.2,29.3,63,30.05,10.0,South,6.9,-,N/A,,Clear,170,2012-10-09 11:55:00
8:15 AM,41.9,29.1,61,30.05,10.0,South,9.2,-,N/A,,Clear,170,2012-10-09 12:15:00
8:35 AM,41.2,29.3,63,30.05,10.0,South,8.1,-,N/A,,Clear,180,2012-10-09 12:35:00
8:54 AM,43.3,30.0,59,30.05,10.0,South,9.2,-,N/A,,Clear,180,2012-10-09 12:54:00
9:15 AM,45.3,30.2,56,30.05,10.0,South,10.4,-,N/A,,Clear,190,2012-10-09 13:15:00
9:35 AM,48.0,30.0,50,30.05,10.0,SSW,12.7,18.4,N/A,,Clear,200,2012-10-09 13:35:00
9:55 AM,49.5,30.2,48,30.04,10.0,SSW,15.0,19.6,N/A,,Clear,210,2012-10-09 13:55:00
10:15 AM,51.3,29.8,44,30.04,10.0,SSW,11.5,18.4,N/A,,Clear,200,2012-10-09 14:15:00
10:34 AM,52.5,29.8,42,30.03,10.0,SSW,11.5,21.9,N/A,,Clear,200,2012-10-09 14:34:00
10:55 AM,54.1,29.5,39,30.03,10.0,SSW,15.0,18.4,N/A,,Clear,200,2012-10-09 14:55:00
11:15 AM,55.0,30.0,38,30.03,10.0,SSW,12.7,21.9,N/A,,Clear,210,2012-10-09 15:15:00
11:34 AM,55.9,30.2,37,30.02,10.0,SSW,15.0,20.7,N/A,,Clear,200,2012-10-09 15:34:00
11:55 AM,57.0,30.4,36,30.02,10.0,SSW,13.8,20.7,N/A,,Clear,210,2012-10-09 15:55:00
12:15 PM,57.9,30.4,35,30.01,10.0,SW,15.0,21.9,N/A,,Clear,230,2012-10-09 16:15:00
12:34 PM,58.8,30.2,34,30.00,10.0,SSW,15.0,26.5,N/A,,Clear,200,2012-10-09 16:34:00
12:55 PM,59.7,30.6,33,29.99,10.0,SSW,16.1,21.9,N/A,,Clear,210,2012-10-09 16:55:00
1:14 PM,61.0,30.4,32,29.98,10.0,SSW,15.0,20.7,N/A,,Clear,200,2012-10-09 17:14:00
1:35 PM,61.2,29.7,30,29.97,10.0,SW,16.1,21.9,N/A,,Clear,220,2012-10-09 17:35:00
1:55 PM,61.3,28.6,29,29.96,10.0,South,16.1,27.6,N/A,,Clear,190,2012-10-09 17:55:00
2:14 PM,61.9,28.9,29,29.94,10.0,SSW,15.0,23.0,N/A,,Clear,210,2012-10-09 18:14:00
2:35 PM,61.7,28.0,28,29.93,10.0,SSW,15.0,24.2,N/A,,Clear,210,2012-10-09 18:35:00
2:55 PM,62.1,28.8,28,29.92,10.0,SSW,15.0,24.2,N/A,,Clear,200,2012-10-09 18:55:00
3:14 PM,61.9,28.0,28,29.92,10.0,SSW,15.0,25.3,N/A,,Clear,210,2012-10-09 19:14:00
3:35 PM,62.1,28.2,28,29.91,10.0,SSW,12.7,21.9,N/A,,Clear,200,2012-10-09 19:35:00
3:55 PM,61.7,28.2,28,29.91,10.0,SSW,12.7,24.2,N/A,,Clear,200,2012-10-09 19:55:00
4:15 PM,62.1,28.0,28,29.89,10.0,South,17.3,21.9,N/A,,Clear,180,2012-10-09 20:15:00
4:35 PM,61.5,28.4,29,29.89,10.0,South,13.8,23.0,N/A,,Clear,190,2012-10-09 20:35:00
4:55 PM,61.2,28.6,29,29.88,10.0,South,16.1,-,N/A,,Clear,180,2012-10-09 20:55:00
5:15 PM,61.0,28.6,29,29.88,10.0,South,16.1,-,N/A,,Clear,180,2012-10-09 21:15:00
5:35 PM,60.3,28.4,30,29.88,10.0,South,11.5,23.0,N/A,,Clear,180,2012-10-09 21:35:00
5:55 PM,60.4,28.6,30,29.88,10.0,SSW,13.8,20.7,N/A,,Clear,200,2012-10-09 21:55:00
6:15 PM,59.9,29.1,31,29.88,10.0,SSW,10.4,18.4,N/A,,Clear,200,2012-10-09 22:15:00
6:35 PM,59.0,29.3,32,29.88,10.0,South,9.2,17.3,N/A,,Clear,190,2012-10-09 22:35:00
6:55 PM,57.7,30.0,35,29.87,10.0,South,10.4,-,N/A,,Clear,190,2012-10-09 22:55:00
7:15 PM,56.8,30.2,36,29.87,10.0,South,9.2,-,N/A,,Clear,190,2012-10-09 23:15:00
7:34 PM,56.1,30.6,38,29.87,10.0,South,8.1,-,N/A,,Clear,190,2012-10-09 23:34:00
7:55 PM,54.7,31.1,41,29.87,10.0,South,5.8,-,N/A,,Clear,180,2012-10-09 23:55:00
8:15 PM,54.0,31.6,43,29.88,10.0,South,5.8,-,N/A,,Clear,190,2012-10-10 00:15:00
8:34 PM,53.6,31.8,44,29.87,10.0,South,6.9,-,N/A,,Clear,180,2012-10-10 00:34:00
8:55 PM,54.9,31.6,41,29.87,10.0,South,10.4,-,N/A,,Mostly Cloudy,170,2012-10-10 00:55:00
9:15 PM,55.0,31.5,41,29.86,10.0,South,10.4,-,N/A,,Scattered Clouds,180,2012-10-10 01:15:00
9:34 PM,55.2,31.6,41,29.86,10.0,South,8.1,-,N/A,,Clear,190,2012-10-10 01:34:00
9:55 PM,54.5,32.0,42,29.85,10.0,South,6.9,-,N/A,,Clear,190,2012-10-10 01:55:00
10:15 PM,54.5,32.0,42,29.85,10.0,South,8.1,-,N/A,,Clear,190,2012-10-10 02:15:00
10:34 PM,54.0,32.0,43,29.83,10.0,South,11.5,-,N/A,,Clear,190,2012-10-10 02:34:00
10:55 PM,53.6,32.2,44,29.83,10.0,South,9.2,-,N/A,,Clear,190,2012-10-10 02:55:00
11:15 PM,53.2,32.7,46,29.82,10.0,South,11.5,-,N/A,,Clear,180,2012-10-10 03:15:00
11:35 PM,52.7,32.9,47,29.81,10.0,South,9.2,-,N/A,,Clear,180,2012-10-10 03:35:00
11:55 PM,52.7,33.1,47,29.80,10.0,South,10.4,-,N/A,,Clear,180,2012-10-10 03:55:00